STARLINK-32333, 61626

Orbit data source: Space-Track

STARLINK-32333, 61626 is a payload satellite owned by SpaceX/Seattle (US) in LEO that was launched on Wed, 23 Oct 2024 UTC via an FALCON 9 launch vehicle from the Air Force Eastern Test Range (AFETR). Payload-class satellites include a variety of spacecraft equipped with specific instruments for various scientific and technological missions. These include communications satellites like Starlink; space stations such as the ISS; scientific satellites like the Hubble; Earth observation satellites from companies like Planet Labs, Umbra, and HawkEye 360; GPS; miniature CubeSats for education and research; and military/defense satellites.

Loading next visibility...
Identifier
61626, 2024-191F
Orbit
LEO
Country
Flag of USUS
Related business
Manufacturer
SpaceX/Seattle
Mission
Operational Commercial Communications
Bus & Motor
STARLINK V2M, Unknown motor
Mass
730 kg wet, ~700 kg dry
Launch date (UTC)
2024-10-23 (1 year ago)
Launch vehicle
FALCON 9
Launch site
Air Force Eastern Test Range (AFETR)
Object type
Payload
Rocket body
Debris
Shape & HBR
Box + 2 Pan, 17.7 m
Radar Cross Section
33.884 m², Large (>1 m²)

Expand to show TLE details & history
Last TLE update: 16 hours ago

TLE from 16 hours ago
0 STARLINK-32333
1 61626U 24191F   26034.29281595 -.00000677  00000-0 -15098-4 0  9993
2 61626  43.0005 352.4194 0000716 326.9252  33.1555 15.27586043 72233
Epoch: 2026-02-03T07:01Z
TLE epoch observation values (Epoch: 2026-02-03T07:01:39.298Z)
Latitude
0.00002°
Longitude
113.52984°
Altitude
482.395 km
Speed
7.626 km/s
True Right ascension
23h 29m 40s
True Declination
0° 00' 00"
Sunlit
Object was in daylight at epoch
Visualization orbit readout
Latitude
Unknown
Longitude
Unknown
Altitude
Unknown
Speed
Unknown
Apparent Right ascension
Unknown
Apparent Declination
Unknown
Sunlit
N/A
Visualization observer readout
Local Sidereal Time
00:50:40
Azimuth
Unknown
Elevation
Unknown
Doppler factor
Unknown
Orbital elements
Apogee altitude
485.467 km
Perigee altitude
484.485 km
Semi-major axis
6,863.113 km
Eccentricity
0.00007
Inclination
43.0005°
RAAN
352.4194°
Arg. of periapsis
326.9252°
True anomaly
33.15999°
Mean anomaly
33.1555°
Eccentric anomaly
33.15774°
Mean motion
3.81735 °/min
Orbital period
94.31 mins
BSTAR
-0.000015098
Loading maneuver chart data...
Computing Atmospheric mass density...
Loading historical data...
Loading historical data...
Loading historical data...
Loading historical data...
Loading historical data...
Loading historical data...
Loading historical data...

Documentation

Showing up to 5 results
|